Weather History for New Iberia, LA

Change the Weather History Date:

Thursday, December 13, 2012

  Actual Average Record
Temperature  
Mean Temperature 50 °F 54 °F  
Max Temperature 65 °F 65 °F 80 °F (1975)
Min Temperature 34 °F 44 °F 14 °F (1962)
Degree Days  
Heating Degree Days 15 11  
Month to date heating degree days 57 134  
Since 1 July heating degree days 258 329  
Cooling Degree Days 0 1  
Month to date cooling degree days 21 13  
Year to date cooling degree days 3264 2805  
Moisture  
Dew Point 31 °F    
Average Humidity 58    
Maximum Humidity 89    
Minimum Humidity 26    
Precipitation  
Precipitation 0.00 in 0.15 in 2.20 in (1968)
Month to date precipitation 3.61 2.36  
Year to date precipitation 52.61 57.05  
Sea Level Pressure  
Sea Level Pressure 30.32 in    
Wind  
Wind Speed 4 mph (NNE)    
Max Wind Speed 10 mph    
Max Gust Speed 16 mph    
Visibility 10 miles    
Events      
T = Trace of Precipitation, MM = Missing Value Source: NWS Daily Summary

Daily Weather History Graph

Daily Weather History Graph

Search for Another Location

Airport:

Trip Planner

Search our weather history database for the weather conditions in past years. The results will help you decide how hot, cold, wet, or windy it might be!

Date:

Astronomy

Dec. 13, 2012 Rise Set
Actual Time 6:55 AM CST 5:09 PM CST
Civil Twilight 6:28 AM CST 5:35 PM CST
Nautical Twilight 5:58 AM CST 6:05 PM CST
Astronomical Twilight 5:29 AM CST 6:34 PM CST
Moon 7:05 AM CST (12/13) 5:50 PM CST (12/13)
Length of Visible Light 11h 06m
Length of Day
10h 14m
New Moon, 0% of the Moon is Illuminated
Dec 13
New Moon
Dec 19
First Quarter
Dec 28
Full
Jan 4
Last Quarter
Jan 11
New

Hourly Weather History & Observations

Time (CST) Temp. Windchill Dew Point Humidity Pressure Visibility Wind Dir Wind Speed Gust Speed Precip Events Conditions
12:53 AM 39.0 °F 34.0 °F 28.9 °F 67% 30.31 in 10.0 mi NNE 6.9 mph - N/A   Clear
1:53 AM 39.9 °F 34.5 °F 30.0 °F 68% 30.30 in 10.0 mi NNE 8.1 mph - N/A   Clear
2:53 AM 39.9 °F 34.5 °F 30.0 °F 68% 30.31 in 10.0 mi NNE 8.1 mph - N/A   Clear
3:53 AM 39.9 °F 35.1 °F 28.9 °F 65% 30.31 in 10.0 mi NE 6.9 mph - N/A   Clear
4:53 AM 37.9 °F 33.5 °F 28.0 °F 68% 30.32 in 10.0 mi North 5.8 mph - N/A   Clear
5:53 AM 36.0 °F 31.1 °F 28.0 °F 73% 30.33 in 10.0 mi NNE 5.8 mph - N/A   Clear
6:53 AM 35.1 °F 31.0 °F 28.0 °F 76% 30.35 in 10.0 mi North 4.6 mph - N/A   Clear
7:53 AM 41.0 °F 35.2 °F 30.9 °F 67% 30.35 in 10.0 mi NE 9.2 mph - N/A   Clear
8:53 AM 46.0 °F 43.1 °F 30.0 °F 54% 30.37 in - ENE 5.8 mph - N/A   Clear
9:53 AM 51.1 °F - 30.0 °F 44% 30.39 in 10.0 mi East 4.6 mph - N/A   Clear
10:53 AM 55.0 °F - 30.9 °F 40% 30.37 in 10.0 mi Variable 3.5 mph - N/A   Clear
11:53 AM 57.9 °F - 30.9 °F 36% 30.34 in 10.0 mi NNE 6.9 mph - N/A   Clear
12:53 PM 61.0 °F - 30.9 °F 32% 30.31 in 10.0 mi Variable 4.6 mph - N/A   Clear
1:53 PM 62.1 °F - 28.9 °F 29% 30.28 in 10.0 mi NE 9.2 mph - N/A   Clear
2:53 PM 64.0 °F - 30.0 °F 28% 30.26 in 10.0 mi NNE 5.8 mph - N/A   Clear
3:53 PM 64.0 °F - 28.9 °F 27% 30.26 in 10.0 mi NNE 5.8 mph - N/A   Clear
7:53 PM 46.0 °F - 39.0 °F 76% 30.28 in 10.0 mi Calm Calm - N/A   Clear
8:53 PM 44.1 °F - 39.0 °F 82% 30.30 in - Calm Calm - N/A   Clear
9:53 PM 43.0 °F - 39.0 °F 86% 30.29 in 10.0 mi Calm Calm - N/A   Clear
10:53 PM 41.0 °F - 37.9 °F 89% 30.28 in 8.0 mi Calm Calm - N/A   Clear